Tracking 29591 objects as of 19-Sep-2024
HD Live streaming from Space Station
objects crossing your sky now

DELTA 1 DEB

Track DELTA 1 DEB now!
10-day predictions


NORAD ID: 2976
Int'l Code: 1967-036C
Perigee: 1,264.6 km
Apogee: 1,416.0 km
Inclination: 102.1 °
Period: 112.3 minutes
Semi major axis: 7711 km
RCS: 0.0638 m2 (small)
Launch date: April 20, 1967
Source: United States (US)
Launch site: AIR FORCE WESTERN TEST RANGE (AFWTR)

Note: This is SATELLITE DEBRIS
Your satellite tracking list
Your tracking list is empty




NASA's NSSDC Master Catalog

Two Line Element Set (TLE):
1 02976U 67036C   24262.81051664 -.00000002  00000-0  20950-3 0  9995
2 02976 102.1057 359.8095 0098194 310.7708 174.3593 12.82067164686153
Source of the keplerian elements: AFSPC